Chicago Lansing, IL

4:53 AM CDT on October 17, 2017 (GMT -0500)
Lansing Municipal

Weather History for KIGQ - December, 2011

Change the Weather History Date:

Friday, December 9, 2011

  Actual Average (KGYY) Record (KGYY)
Temperature  
Mean Temperature 28 °F -  
Max Temperature 32 °F 36 °F 60 °F (1971)
Min Temperature 23 °F 22 °F -10 °F (1958)
Degree Days  
Heating Degree Days 38    
Moisture  
Dew Point 19 °F    
Average Humidity 72    
Maximum Humidity 96    
Minimum Humidity 49    
Precipitation  
Precipitation 0.00 in - - ()
Sea Level Pressure  
Sea Level Pressure 30.26 in    
Wind  
Wind Speed 7 mph (WNW)    
Max Wind Speed 13 mph    
Max Gust Speed 21 mph    
Visibility 8 miles    
Events Snow    
Averages and records for this station are not official NWS values.
T = Trace of Precipitation, MM = Missing Value Source: NWS Daily Summary

Daily Weather History Graph

Daily Weather History Graph

Search for Another Location

Airport or City:

Trip Planner

Search our weather history database for the weather conditions in past years. The results will help you decide how hot, cold, wet, or windy it might be!

Date:

Astronomy

Dec. 09, 2011 Rise Set
Actual Time 7:04 AM CST 4:20 PM CST
Civil Twilight 6:33 AM CST 4:51 PM CST
Nautical Twilight 5:58 AM CST 5:26 PM CST
Astronomical Twilight 5:25 AM CST 5:59 PM CST
Moon 3:43 PM CST (12/9) 6:11 AM CST (12/9)
Length of Visible Light 10h 17m
Length of Day
9h 15m
Waxing Gibbous, 99% of the Moon is Illuminated
Dec 9
Waxing Gibbous
Dec 10
Full
Dec 17
Last Quarter
Dec 24
New
Jan 1
First Quarter

Hourly Weather History & Observations

Time (CST) Temp. Windchill Dew Point Humidity Pressure Visibility Wind Dir Wind Speed Gust Speed Precip Events Conditions
12:15 AM 32.0 °F 24.8 °F 25.7 °F 78% 30.19 in 5.0 mi West 8.1 mph - N/A Snow Light Snow
12:35 AM 31.5 °F 24.9 °F 27.1 °F 84% 30.19 in 7.0 mi West 6.9 mph - N/A Snow Light Snow
12:55 AM 30.9 °F 24.3 °F 27.3 °F 86% 30.19 in 3.0 mi West 6.9 mph - N/A Snow Light Snow
1:15 AM 30.2 °F 23.4 °F 28.4 °F 93% 30.19 in 1.8 mi West 6.9 mph - N/A Snow Light Snow
1:35 AM 30.2 °F 24.3 °F 29.1 °F 96% 30.19 in 1.8 mi West 5.8 mph - N/A Snow Light Snow
1:55 AM 30.2 °F - 29.3 °F 96% 30.19 in 3.0 mi Calm Calm - N/A Snow Light Snow
2:15 AM 30.2 °F 25.4 °F 29.1 °F 96% 30.19 in 2.5 mi West 4.6 mph - N/A Snow Light Snow
2:35 AM 30.0 °F 26.5 °F 28.9 °F 96% 30.19 in 3.0 mi WNW 3.5 mph - N/A Snow Light Snow
2:55 AM 30.2 °F 25.4 °F 28.4 °F 93% 30.20 in 7.0 mi NW 4.6 mph - N/A Snow Light Snow
3:15 AM 30.0 °F 25.2 °F 28.0 °F 92% 30.20 in 5.0 mi WNW 4.6 mph - N/A Snow Light Snow
3:35 AM 29.8 °F 23.9 °F 27.9 °F 92% 30.19 in 3.0 mi NW 5.8 mph - N/A Snow Light Snow
3:55 AM 29.5 °F 25.9 °F 28.0 °F 94% 30.19 in 3.0 mi WNW 3.5 mph - N/A Snow Light Snow
4:15 AM 29.3 °F 24.3 °F 28.0 °F 95% 30.19 in 3.0 mi NW 4.6 mph - N/A Snow Light Snow
4:35 AM 27.5 °F 18.0 °F 25.0 °F 90% 30.20 in 4.0 mi NW 10.4 mph 17.3 mph N/A Snow Light Snow
4:55 AM 27.3 °F 18.4 °F 24.8 °F 90% 30.21 in 5.0 mi NW 9.2 mph - N/A Snow Light Snow
5:15 AM 26.1 °F 16.2 °F 23.0 °F 88% 30.21 in 7.0 mi NNW 10.4 mph - N/A Snow Light Snow
5:35 AM 25.5 °F 19.9 °F 22.1 °F 87% 30.22 in 10.0 mi NNW 4.6 mph - N/A Snow Light Snow
5:55 AM 25.3 °F 14.7 °F 21.9 °F 87% 30.22 in 10.0 mi NW 11.5 mph - N/A Snow Light Snow
6:15 AM 25.2 °F 18.3 °F 21.0 °F 84% 30.23 in 10.0 mi NW 5.8 mph - N/A   Overcast
6:35 AM 24.8 °F 17.9 °F 20.3 °F 83% 30.24 in 10.0 mi NW 5.8 mph - N/A   Overcast
6:55 AM 24.8 °F 16.1 °F 19.9 °F 82% 30.25 in 10.0 mi NW 8.1 mph - N/A   Overcast
7:15 AM 24.6 °F 18.8 °F 19.6 °F 81% 30.25 in 10.0 mi NW 4.6 mph - N/A   Overcast
7:35 AM 24.8 °F 19.1 °F 19.4 °F 80% 30.25 in 10.0 mi WNW 4.6 mph - N/A   Overcast
7:55 AM 25.2 °F 19.5 °F 20.1 °F 81% 30.26 in 10.0 mi WNW 4.6 mph - N/A   Overcast
8:15 AM 25.5 °F 16.2 °F 19.4 °F 78% 30.26 in 10.0 mi NW 9.2 mph - N/A   Overcast
8:35 AM 25.7 °F 14.6 °F 18.0 °F 73% 30.27 in 10.0 mi NW 12.7 mph 20.7 mph N/A   Overcast
8:55 AM 26.1 °F 16.8 °F 18.0 °F 71% 30.28 in 10.0 mi WNW 9.2 mph 16.1 mph N/A   Mostly Cloudy
9:15 AM 26.2 °F 17.1 °F 16.9 °F 68% 30.28 in 10.0 mi NW 9.2 mph 18.4 mph N/A   Overcast
9:35 AM 26.4 °F 18.0 °F 17.6 °F 69% 30.29 in 10.0 mi WNW 8.1 mph - N/A   Overcast
9:55 AM 25.7 °F 16.4 °F 16.0 °F 67% 30.29 in 10.0 mi West 9.2 mph - N/A   Mostly Cloudy
10:15 AM 27.5 °F 20.2 °F 16.9 °F 64% 30.29 in 10.0 mi NW 6.9 mph - N/A   Scattered Clouds
10:35 AM 27.9 °F 19.1 °F 15.1 °F 59% 30.30 in 10.0 mi NW 9.2 mph - N/A   Clear
10:55 AM 28.8 °F 20.9 °F 16.7 °F 61% 30.30 in 10.0 mi West 8.1 mph - N/A   Scattered Clouds
11:15 AM 28.4 °F 20.4 °F 15.4 °F 58% 30.29 in 10.0 mi NW 8.1 mph - N/A   Scattered Clouds
11:35 AM 29.3 °F 21.5 °F 15.3 °F 56% 30.28 in 10.0 mi NW 8.1 mph - N/A   Clear
11:55 AM 29.5 °F 23.4 °F 15.1 °F 55% 30.28 in 10.0 mi NW 5.8 mph 16.1 mph N/A   Clear
12:15 PM 29.5 °F 20.4 °F 13.6 °F 52% 30.29 in 10.0 mi WNW 10.4 mph - N/A   Clear
12:35 PM 29.7 °F 20.1 °F 15.3 °F 55% 30.28 in 10.0 mi NW 11.5 mph 17.3 mph N/A   Clear
12:55 PM 29.7 °F 21.3 °F 16.3 °F 58% 30.29 in 10.0 mi West 9.2 mph - N/A   Scattered Clouds
1:15 PM 29.3 °F 20.8 °F 14.9 °F 55% 30.28 in 10.0 mi WNW 9.2 mph - N/A   Clear
1:35 PM 29.7 °F 19.6 °F 17.6 °F 61% 30.28 in 10.0 mi West 12.7 mph - N/A   Scattered Clouds
1:55 PM 29.1 °F 19.4 °F 15.3 °F 56% 30.28 in 10.0 mi West 11.5 mph 17.3 mph N/A   Scattered Clouds
2:15 PM 29.3 °F 20.8 °F 15.6 °F 57% 30.28 in 10.0 mi West 9.2 mph - N/A   Scattered Clouds
2:35 PM 29.3 °F 22.3 °F 14.4 °F 54% 30.28 in 10.0 mi West 6.9 mph - N/A   Scattered Clouds
2:55 PM 28.9 °F 19.2 °F 11.8 °F 49% 30.29 in 10.0 mi West 11.5 mph - N/A   Clear
3:15 PM 28.2 °F 18.3 °F 11.1 °F 49% 30.30 in 10.0 mi WSW 11.5 mph 17.3 mph N/A   Clear
3:35 PM 27.5 °F 17.4 °F 12.2 °F 53% 30.31 in 10.0 mi West 11.5 mph 17.3 mph N/A   Clear
3:55 PM 27.0 °F 16.1 °F 13.1 °F 56% 30.32 in 10.0 mi West 12.7 mph - N/A   Clear
4:15 PM 26.2 °F 15.8 °F 12.0 °F 55% 30.32 in 10.0 mi WNW 11.5 mph 18.4 mph N/A   Clear
4:35 PM 25.3 °F 17.6 °F 11.5 °F 56% 30.33 in 10.0 mi West 6.9 mph 10.4 mph N/A   Clear
4:55 PM 24.8 °F 16.1 °F 11.5 °F 57% 30.34 in 10.0 mi West 8.1 mph - N/A   Clear
5:15 PM 24.6 °F 14.4 °F 12.2 °F 59% 30.34 in 10.0 mi West 10.4 mph - N/A   Clear
5:35 PM 23.7 °F 15.6 °F 12.2 °F 61% 30.36 in 10.0 mi West 6.9 mph - N/A   Clear
5:55 PM 23.5 °F 15.4 °F 12.6 °F 63% 30.37 in 10.0 mi West 6.9 mph - N/A   Clear
6:15 PM 23.2 °F 13.3 °F 13.3 °F 66% 30.38 in 10.0 mi West 9.2 mph - N/A   Clear
6:35 PM 22.1 °F 14.7 °F 13.5 °F 69% 30.39 in 10.0 mi West 5.8 mph - N/A   Clear
6:55 PM 22.1 °F 12.8 °F 13.1 °F 68% 30.39 in 10.0 mi West 8.1 mph - N/A   Clear
7:15 PM 21.4 °F 11.9 °F 13.1 °F 70% 30.40 in 10.0 mi West 8.1 mph - N/A   Clear
7:35 PM 21.6 °F 9.9 °F 12.9 °F 69% 30.40 in 10.0 mi West 11.5 mph - N/A   Clear
7:55 PM 21.0 °F 10.6 °F 12.7 °F 70% 30.40 in 10.0 mi West 9.2 mph - N/A   Clear
8:15 PM 20.7 °F 11.0 °F 12.0 °F 69% 30.40 in 10.0 mi West 8.1 mph - N/A   Clear
8:35 PM 20.7 °F 11.0 °F 10.9 °F 66% 30.41 in 10.0 mi West 8.1 mph - N/A   Clear
8:55 PM 20.3 °F 11.5 °F 10.8 °F 67% 30.41 in 10.0 mi West 6.9 mph - N/A   Clear
9:15 PM 20.1 °F 9.5 °F 11.1 °F 68% 30.41 in 10.0 mi West 9.2 mph - N/A   Clear
9:35 PM 18.9 °F 9.8 °F 11.1 °F 72% 30.42 in 10.0 mi West 6.9 mph - N/A   Clear
9:55 PM 18.5 °F 9.3 °F 11.1 °F 73% 30.42 in 10.0 mi West 6.9 mph - N/A   Clear
10:15 PM 18.9 °F 9.8 °F 10.9 °F 71% 30.43 in 10.0 mi West 6.9 mph - N/A   Clear
10:35 PM 18.5 °F 10.4 °F 11.1 °F 73% 30.44 in 10.0 mi West 5.8 mph - N/A   Clear
10:55 PM 18.0 °F 8.7 °F 10.9 °F 74% 30.44 in 10.0 mi West 6.9 mph - N/A   Clear
11:15 PM 18.0 °F 7.7 °F 10.8 °F 73% 30.44 in 10.0 mi West 8.1 mph - N/A   Clear
11:35 PM 17.6 °F 8.2 °F 10.4 °F 73% 30.44 in 10.0 mi West 6.9 mph - N/A   Clear
11:55 PM 17.6 °F 8.2 °F 10.2 °F 73% 30.44 in 10.0 mi West 6.9 mph - N/A   Clear